Skip Navigation Links
NOAA logo - Click to go to the NOAA homepage
NOAA's National Weather Service
Alaska Aviation Weather Unit
  NWS logo - Click to go to the NWS homepage
Left Navbar Graphic     09 AKDT = 17 GMT

   
NOAA is celebrating 200 years of science, service, and stewardship. Visit the NOAA 200th celebration Web site to learn more.
USA.gov is the U.S. Government's official Web portal to all Federal, state and local government Web resources and services.
Facebook
NWS on Facebook

Important Change Regarding the AAWU Web Presence

 

Over the last several months, the AAWU has been working to navigate its webpages to a nationally supported server. Security, as well as other needs, have necessitated the change.  In the process, we have made an effort to enhance the functionality of our website, as well as some of our products. As of June 20, 2017, aawu.arh.noaa.gov will be discontinued. The new AAWU web address is weather.gov/aawu. It is now live and will run in-parallel with the old site until it is discontinued. Please send any feedback or questions regarding the new webpages to nws.ar.aawu.webauthors@noaa.gov.  Thank you for your patience during this time of transition.
AAWU Home :: Display TAF Add Bookmark
METAR PASX 271156Z AUTO 00000KT 10SM CLR M01/M02 A3011 RMK AO2 SLP206
     60000 70006 T10061017 10067 21006 56001 FZRANO $=

METAR PASX 271256Z AUTO 00000KT 10SM FEW110 M02/M02 A3011 RMK AO2 SLP205
     T10171022 FZRANO $=

METAR PASX 271356Z AUTO 00000KT 10SM OVC100 M02/M02 A3010 RMK AO2 SLP203
     T10171022 FZRANO $=

METAR PASX 271456Z AUTO 00000KT 10SM BKN075 M01/M01 A3010 RMK AO2
 SLP201 T10061011 58005 FZRANO $=

METAR PASX 271556Z AUTO 00000KT 10SM FEW080 01/01 A3009 RMK AO2 SLP200
     T00110006 FZRANO $=

METAR PASX 271656Z AUTO 00000KT 10SM OVC070 04/02 A3008 RMK AO2 SLP197
     T00440022 $=


NOAA's National Weather Service
Alaska Aviation Weather Unit
6930 Sand Lake Road
Anchorage, AK 99502-1845
Disclaimer
Credits
Glossary
Privacy Policy
About Us
Career Opportunities
Contact AAWU Internet Services Site last modified: April, 17th 2012